Погода в Кенмэре

Ирландия     51°52′49″N   9°35′01″W
темп.,
°C
ветер,
м/с
пор.,
м/с
влажн.,
%
обл.,
%
осадки,
мм/ч
давл.,
гПа
погр.,
м
11 мая, вт
вт1101:00+4ю359187 0.1 997115
04:00+4ю488559 0.0 998249
07:00+5ю49797 0.0 998698
10:00+8ю586695 0.0 9991181
13:00+8ю4789100 2.5 1000950
16:00+7юв2694100 7.9 1001629
19:00+7юв129799 9.1 1002198
22:00+6ююв1197100 0.1 100217
12 мая, ср
ср1201:00+7ю1196100 0.1 100219
04:00+7ю119795 0.3 100233
07:00+7юв1196100 0.3 100362
10:00+9св1190100 0.4 1003302
13:00+8св2394100 3.1 1005283
16:00+12св347199 0.6 10051320
19:00+10ссз467923 0.9 1007851
22:00+6сз219412 0.0 100915
13 мая, чт
чт1301:00+4сз11977 0.0 100913
04:00+5зсз129995 0.0 101059
07:00+8сз3483100 0.0 1010228
10:00+10сз357688 0.1 1010942
13:00+12сз467056 0.4 10101115
16:00+12сз676658 0.1 10101308
19:00+10сз587715 0.2 1012877
22:00+6сз239755 0.0 101360
14 мая, пт
пт1401:00+7сз239341 0.1 101393
04:00+6сз119629 0.0 101213
07:00+6зюз119645 0.0 101349
10:00+11ююв127235 0.0 1011785
13:00+12ююв4563100 0.1 10081349
16:00+11ю4662100 0.0 10071094
19:00+8ююв3891100 0.9 1005978
22:00+6юв71395100 1.6 1002994
15 мая, сб
сб1501:00+7юв41197100 2.3 999769
04:00+7ююв229965 0.1 99648
07:00+7ююв229625 0.1 99568
10:00+10ююз358598 0.5 994681
13:00+9ю2594100 3.1 993408
16:00+10ююв2694100 0.7 992691
19:00+11юз489047 1.2 992831
22:00+8зюз41193100 0.1 993714